Weather Roundup
Issued by NWS Springfield, MO

Home | Current Version | Previous Version | Text Only | Print | Product List | Glossary On
Versions: 1 2 3 4 5 6 7 8 9 10 11 12 13 14 15 16 17 18 19 20 21 22 23 24 25 26 27 28 29 30 31 32 33 34 35 36 37 38 39 40 41 42 43 44 45 46 47 48 49 50
000
NZUS99 KSGF 230159
HRRSGF

HOURLY WEATHER
NATIONAL WEATHER SERVICE SPRINGFIELD MO
900 PM CDT FRI AUG 22 2014

......SGF CWA......

CITY           SKY/WX    TMP DP  RH WIND       PRES   REMARKS
SPRINGFIELD    MOCLDY    84  68  58 S9        29.95S
JOPLIN         CLEAR     87  72  60 S10       29.93S HX  93
WEST PLAINS    CLEAR     82  70  66 CALM      29.99S
ROLLA          PTCLDY    84  67  56 S7        29.93R
OSAGE BEACH    CLEAR     84  73  70 CALM      29.92S HX  91
BRANSON        PTCLDY    86  72  62 S7        29.99F HX  92

......SURROUNDING SGF CWA......

CITY           SKY/WX    TMP DP  RH WIND       PRES   REMARKS
CHANUTE        CLEAR     82  69  64 SE6       29.91S
PARSONS        CLEAR     88  73  61 S7        29.91S HX  95
COFFEYVILLE    CLEAR     88  74  63 S10       29.89R HX  96
EMPORIA        MOCLDY    74  67  78 SE7       29.89R
SILOAM SPRINGS CLEAR     82  70  65 S6        29.99R
HARRISON AR    CLEAR     82  74  76 S6        30.00F
NEAR YELLVILLE CLEAR     88  70  55 SW7       29.96F HX  92

......KANSAS AND MISSOURI......

CITY           SKY/WX    TMP DP  RH WIND       PRES   REMARKS
KANSAS CTY INT CLOUDY    82  70  66 CALM      29.91R
DOWNTOWN KC    CLOUDY    85  65  51 W6        29.89R
COLUMBIA       MOCLDY    85  78  80 E5        29.92S HX  96
SEDALIA        MOCLDY    82  77  84 CALM      29.91F HX  90
ST JOSEPH      CLOUDY    78  76  93 N6        29.91R
ST LOUIS       MOCLDY    87  76  69 E3        29.93R HX  97
SPIRIT OF STL  MOCLDY    81  78  91 CALM      29.91R
KIRKSVILLE     PTCLDY    81  77  88 E5        29.94S
WICHITA        PTCLDY    89  66  46 SE13      29.87R HX  91
TOPEKA         CLOUDY    84  71  65 CALM      29.89R
OLATHE         CLOUDY    79  67  66 S5        29.90R

......TENNESSEE......

CITY           SKY/WX    TMP DP  RH WIND       PRES   REMARKS
MEMPHIS        PTCLDY    86  74  67 SW6       29.99S HX  94
NASHVILLE      PTCLDY    82  73  74 CALM      30.02R

......ARKANSAS.......

CITY           SKY/WX    TMP DP  RH WIND       PRES   REMARKS
FAYETTEVILLE   CLEAR     79  72  79 CALM      29.99S
FT SMITH       CLEAR     87  76  69 S6        29.94S HX  97
LITTLE ROCK    CLEAR     83  76  79 S5        29.98R HX  91

......OKLAHOMA.......

CITY           SKY/WX    TMP DP  RH WIND       PRES   REMARKS
TULSA          CLEAR     91  69  48 S18       29.90R HX  96
PONCA CITY     CLEAR     92  66  42 S15G23    29.87R HX  94
MCALESTER      CLEAR     86  71  60 SE6       29.96R HX  91
OKLAHOMA CITY  CLEAR     89  60  37 SE14      29.90S

......IOWA............

CITY           SKY/WX    TMP DP  RH WIND       PRES   REMARKS
DES MOINES     CLOUDY    81  75  82 CALM      29.95R
QUAD CITIES    CLEAR     79  74  84 CALM      29.96R

......ILLINOIS........

CITY           SKY/WX    TMP DP  RH WIND       PRES   REMARKS
QUINCY         CLEAR     80  77  90 NE5       29.94R
CHICAGO        MOCLDY    80  71  74 SW3       29.96R



USA.gov is the U.S. government's official web portal to all federal, state and local government web resources and services.